Back to catalog

COSMOS 1818 COOLANT

LostLEO
NORAD 35518·DEBRIS·🇷🇺 Russia

Launched Feb 1, 1987 from Baikonur Cosmodrome

Loading…

Next Passes (next 24 hours)

TLE

StaleSource: Space-Track

Epoch: Nov 30, 2023, 11:44 UTC

1 35518U 87011J   23334.48954031  .00002220  00000-0  80001-3 0  9996
2 35518  65.0105 285.8904 0020762 283.1738  76.7032 14.35696749791574

Track COSMOS 1818 COOLANT in real time with AllMySat

Download on the App Store